Tracking 29892 objects as of 21-Nov-2024
HD Live streaming from Space Station
objects crossing your sky now

FREGAT R/B

Track FREGAT R/B now!


NORAD ID: 44553
Int'l Code: 2019-065B
Perigee: 2,518.4 km
Apogee: 37,679.3 km
Inclination: 63.4 °
Period: 714.3 minutes
Semi major axis: 26469 km
RCS: Unknown
Launch date: September 26, 2019
Source: Commonwealth of Independent States (former USSR) (CIS)
Launch site: PLESETSK MISSILE AND SPACE COMPLEX (PKMTR)

Note: This is a ROCKET BODY
Your satellite tracking list
Your tracking list is empty




NASA's NSSDC Master Catalog

Two Line Element Set (TLE):
1 44553U 19065B   24324.76099748  .00000254  00000-0  00000-0 0  9998
2 44553  63.3586 210.1088 6641684 264.3063  22.5698  2.01592957 37926
Source of the keplerian elements: AFSPC